NOAA NWS Hourly Roundups by Site

Regional Weather Roundup for Green Bay, WI

To Select Another Site Choose from List

Select Site:  

000
ASUS43 KGRB 262111
RWRGRB

NORTH-CENTRAL AND NORTHEAST WISCONSIN REGIONAL WEATHER ROUNDUP
NATIONAL WEATHER SERVICE GREEN BAY WI
400 PM CDT THU MAY 26 2022

WIZ005-009-010>012-018-019-262200-
NORTH CENTRAL WISCONSIN

CITY           SKY/WX    TMP DP  RH WIND       PRES   REMARKS
IRONWOOD       CLOUDY    49  47  93 N7        29.88R
MANITOWISH WTR CLOUDY    51  48  90 N6        29.85R
ARBOR VITAE    CLOUDY    52  23  32 NE7       29.84S
EAGLE RIVER    CLOUDY    50  45  83 N7        29.84R
LAND O LAKES   CLOUDY    50  47  92 N7        29.86R
RHINELANDER    CLOUDY    51  46  83 VRB5      29.84R
PHILLIPS       CLOUDY    52  47  85 N6        29.83F
ANTIGO         CLOUDY    54  52  92 N6        29.82R
TOMAHAWK       CLOUDY    53  48  84 CALM      29.84R
MERRILL        CLOUDY    53  51  94 N5        29.83R
$$

WIZ013-073-262200-
NORTHEAST WISCONSIN

CITY           SKY/WX    TMP DP  RH WIND       PRES   REMARKS
IRON MOUNTAIN  LGT RAIN  54  52  93 NW7       29.80R FOG
MARINETTE      CLOUDY    59  58  96 NW5       29.78F
OCONTO         CLOUDY    62  60  93 NW7       29.77F
$$

WIZ017-030-035>037-045-262200-
CENTRAL WISCONSIN

CITY           SKY/WX    TMP DP  RH WIND       PRES   REMARKS
MEDFORD        CLOUDY    53  51  94 N5        29.84R
WAUSAU         CLOUDY    59  50  72 N7        29.80S
MOSINEE        CLOUDY    57  54  88 N5        29.82S
MARSHFIELD     CLOUDY    57  53  86 N9        29.80S
WISC RAPIDS    CLOUDY    61  54  77 NW8       29.79F
STEVENS POINT  CLOUDY    63  53  71 N6        29.80F
WAUPACA        CLOUDY    67  60  77 NW7       29.77F
SHAWANO        CLOUDY    62  61  96 N3        29.78S
CLINTONVILLE   NOT AVBL
WAUTOMA        CLOUDY    65  59  81 NW8       29.77S
$$

WIZ038-039-048-051-262200-
FOX VALLEY

CITY           SKY/WX    TMP DP  RH WIND       PRES   REMARKS
NWS GREEN BAY  CLOUDY    70  60  70 NW6       29.76F
APPLETON       PTSUNNY   70  59  68 NW6       29.75F
OSHKOSH        CLOUDY    69  62  78 N8        29.75S
FOND DU LAC    CLOUDY    69  61  75 NE10      29.74F
$$

WIZ022-050-052-262200-
EAST CENTRAL WISCONSIN

CITY           SKY/WX    TMP DP  RH WIND       PRES   REMARKS
EPHRAIM        CLOUDY    56  54  93 CALM      29.77F
WASHINGTON ISL DRIZZLE   54  54 100 N3        29.78S
STURGEON BAY   CLOUDY    59  56  89 N5        29.79S
MANITOWOC      CLOUDY    67  67 100 SE7       29.76F
SHEBOYGAN      CLOUDY    70  66  87 S9        29.75S
$$

LMZ563-521-522-541>543-262200-
LAKESHORE

STATION/POSITION TIME  TEMP    WIND        PRES    VSBY  WAVE
                       AIR SEA DIR/SP/G                  HT/PER
                 (UTC) (F)     (DEG/KT/KT) (MB)    (MI)  (FT/S)
SHEBOYGAN LKSHOR 2100   57     170/ 12/ 13 1007.2F
KEWAUNEE LKSHORE 2030   51      30/  3/  5 1006.4F
NORTHPORT PIER   2040   53     300/  8/  9 1009.5S
N MID LAKE BUOY  2050   41 38  240/  4/  4 1009.1R         2/ 5
SISTER BAY LKSHO 2026   57        CALM       N/A
GREEN BAY WEST   2030   62      60/  6/  8 1006.8F
MENOMINEE LKSHOR 2030   56 62   10/  5/  5 1007.2F
$$


 

View Past Reports for Green Bay, WI.

Products Courtesy of NOAA-NWS
NWS Information Parsing Script by Ken True at Saratoga Weather - Script by SE Lincoln Weather.